Pasco, WA

2:19 PM PST on January 19, 2017 (GMT -0800)
Tri-Cities

Weather History for KPSC - October, 2012

Change the Weather History Date:

Sunday, October 28, 2012

  Actual Average Record
Temperature  
Mean Temperature 54 °F 48 °F  
Max Temperature 65 °F 60 °F 79 °F (2003)
Min Temperature 42 °F 36 °F 23 °F (2007)
Degree Days  
Heating Degree Days 11 17  
Month to date heating degree days 365 352  
Since 1 July heating degree days 421 463  
Cooling Degree Days 0 0  
Month to date cooling degree days 2 0  
Year to date cooling degree days 788 709  
Growing Degree Days 3 (Base 50)    
Moisture  
Dew Point 50 °F    
Average Humidity 82    
Maximum Humidity 100    
Minimum Humidity 63    
Precipitation  
Precipitation 0.17 in 0.02 in 0.41 in (1999)
Month to date precipitation 0.99 0.59  
Year to date precipitation 7.40 6.47  
Snow  
Snow 0.00 in - - ()
Snow Depth 0.00 in    
Sea Level Pressure  
Sea Level Pressure 29.89 in    
Wind  
Wind Speed 3 mph (East)    
Max Wind Speed 10 mph    
Max Gust Speed 13 mph    
Visibility 9 miles    
Events Rain    
T = Trace of Precipitation, MM = Missing Value Source: NWS Daily Summary

Daily Weather History Graph

Daily Weather History Graph

Search for Another Location

Airport or City:

Trip Planner

Search our weather history database for the weather conditions in past years. The results will help you decide how hot, cold, wet, or windy it might be!

Date:

Astronomy

Oct. 28, 2012 Rise Set
Actual Time 7:32 AM PDT 5:47 PM PDT
Civil Twilight 7:01 AM PDT 6:18 PM PDT
Nautical Twilight 6:26 AM PDT 6:53 PM PDT
Astronomical Twilight 5:51 AM PDT 7:28 PM PDT
Moon 5:07 PM PDT (10/28) 6:29 AM PDT (10/28)
Length of Visible Light 11h 16m
Length of Day
10h 14m
Waxing Gibbous, 99% of the Moon is Illuminated
Oct 28
Waxing Gibbous
Oct 29
Full
Nov 6
Last Quarter
Nov 13
New
Nov 20
First Quarter

Hourly Weather History & Observations

Time (PDT) Temp. Windchill Dew Point Humidity Pressure Visibility Wind Dir Wind Speed Gust Speed Precip Events Conditions
12:53 AM 45.0 °F - 44.1 °F 97% 29.86 in 6.0 mi Calm Calm - N/A   Mostly Cloudy
1:53 AM 43.0 °F 40.3 °F 42.1 °F 97% 29.86 in 7.0 mi NNE 4.6 mph - N/A   Partly Cloudy
2:53 AM 42.1 °F - 41.0 °F 96% 29.86 in 8.0 mi Calm Calm - N/A   Clear
3:53 AM 43.0 °F 39.5 °F 42.1 °F 97% 29.86 in 10.0 mi NNE 5.8 mph - N/A   Clear
4:53 AM 44.1 °F 42.5 °F 43.0 °F 96% 29.87 in 10.0 mi North 3.5 mph - N/A   Clear
5:53 AM 46.0 °F 43.1 °F 45.0 °F 96% 29.87 in 10.0 mi NNE 5.8 mph - N/A   Clear
6:53 AM 44.1 °F - 44.1 °F 100% 29.88 in 10.0 mi Calm Calm - N/A   Clear
7:53 AM 44.1 °F 42.5 °F 43.0 °F 96% 29.89 in 10.0 mi NNW 3.5 mph - N/A   Clear
8:53 AM 45.0 °F - 44.1 °F 97% 29.91 in 8.0 mi Calm Calm - N/A   Clear
10:53 AM 52.0 °F - 50.0 °F 93% 29.92 in 10.0 mi North 3.5 mph - N/A   Clear
11:53 AM 57.9 °F - 53.1 °F 84% 29.92 in 10.0 mi Calm Calm - N/A   Clear
12:53 PM 61.0 °F - 55.0 °F 81% 29.91 in 10.0 mi Calm Calm - N/A   Clear
1:53 PM 64.9 °F - 53.1 °F 65% 29.90 in 10.0 mi Calm Calm - N/A   Clear
2:53 PM 64.9 °F - 52.0 °F 63% 29.89 in 10.0 mi Calm Calm - N/A   Partly Cloudy
3:53 PM 63.0 °F - 51.1 °F 65% 29.90 in 10.0 mi SW 10.4 mph - 0.00 in Rain Light Rain
4:53 PM 59.0 °F - 53.1 °F 81% 29.90 in 10.0 mi SSW 8.1 mph - 0.01 in Rain Light Rain
5:53 PM 57.9 °F - 54.0 °F 87% 29.91 in 10.0 mi South 8.1 mph - 0.02 in Rain Light Rain
6:53 PM 57.0 °F - 54.0 °F 89% 29.90 in 10.0 mi SSE 8.1 mph - 0.03 in Rain Light Rain
7:53 PM 55.9 °F - 55.0 °F 97% 29.91 in 10.0 mi East 3.5 mph - 0.02 in Rain Light Rain
8:13 PM 55.4 °F - 55.4 °F 100% 29.90 in 6.0 mi East 3.5 mph - 0.03 in Rain Rain
8:53 PM 55.9 °F - 55.0 °F 97% 29.90 in 10.0 mi SE 4.6 mph - 0.07 in Rain Light Rain
9:53 PM 55.0 °F - 54.0 °F 96% 29.88 in 10.0 mi ESE 3.5 mph - 0.00 in Rain Light Rain
10:53 PM 55.0 °F - 54.0 °F 96% 29.88 in 10.0 mi Calm Calm - 0.01 in Rain Light Rain
11:53 PM 55.0 °F - 54.0 °F 96% 29.85 in 10.0 mi SE 4.6 mph - 0.00 in Rain Light Rain